This is the latest recevied weather packets stored in our database for station/object NR6G-12. If no packets are shown the sender has not sent any weather packets the latest 10 day(s).
| Time | Temp. | Humidity | Pressure | Rain* | Wind** | Luminosity | Snow |
|---|---|---|---|---|---|---|---|
| 1777881121 | 7.78° C | 86% | 1012.5 hPa | 0 mm | - | - | - |
| 1777880761 | 7.78° C | 86% | 1012.3 hPa | 0 mm | - | - | - |
| 1777880401 | 7.78° C | 87% | 1012.4 hPa | 0 mm | - | - | - |
| 1777880043 | 7.78° C | 87% | 1012.4 hPa | 0 mm | - | - | - |
| 1777879681 | 7.78° C | 86% | 1012.3 hPa | 0 mm | - | - | - |
| 1777879321 | 7.78° C | 87% | 1012.2 hPa | 0 mm | - | - | - |
| 1777878961 | 7.78° C | 89% | 1012.2 hPa | 0 mm | - | - | - |
| 1777878601 | 7.78° C | 89% | 1012.1 hPa | 0 mm | - | - | - |
| 1777878243 | 7.78° C | 88% | 1012.1 hPa | 0 mm | - | - | - |
| 1777877881 | 7.78° C | 88% | 1012.1 hPa | 0 mm | - | - | - |
| 1777877521 | 7.78° C | 88% | 1012.1 hPa | 0 mm | - | - | - |
| 1777877161 | 7.78° C | 88% | 1012.1 hPa | 0 mm | - | - | - |
| 1777876801 | 7.78° C | 88% | 1012 hPa | 0 mm | - | - | - |
| 1777876443 | 7.78° C | 88% | 1012 hPa | 0 mm | - | - | - |
| 1777876081 | 7.78° C | 88% | 1012 hPa | 0 mm | - | - | - |
| 1777875721 | 7.78° C | 89% | 1012 hPa | 0 mm | - | - | - |
| 1777875361 | 7.78° C | 88% | 1012.1 hPa | 0 mm | - | - | - |
| 1777875001 | 7.78° C | 86% | 1012.2 hPa | 0 mm | - | - | - |
| 1777874643 | 7.78° C | 86% | 1012.3 hPa | 0 mm | - | - | - |
| 1777874281 | 7.78° C | 89% | 1012.2 hPa | 0 mm | - | - | - |
| 1777873921 | 7.78° C | 87% | 1012.2 hPa | 0 mm | - | - | - |
| 1777873561 | 7.78° C | 90% | 1012.1 hPa | 0 mm | - | - | - |
| 1777873201 | 7.78° C | 89% | 1012.2 hPa | 0 mm | - | - | - |
| 1777872843 | 7.78° C | 89% | 1012.1 hPa | 0 mm | - | - | - |
| 1777872482 | 8.33° C | 90% | 1012.1 hPa | 0 mm | - | - | - |
* Rain latest hour (hover to see other rain measurements)
** Current wind speed in m/s (hover to see current wind gust speed)